FW2567 Weather Reports


Display with metric or nautical units.
time (UTC)temp
F
wind
direction
speed
MPH
gust
MPH
rain 1hr
in
rain 24hr
in
rain mn
in
humidity
%
barometer
mb
20260508013030 69 287 4.0 11.0 0.00 0.00 0.00 32 1017.1
20260508011607 70 301 6.0 12.0 0.00 0.00 0.00 30 1017.2
20260508010032 71 301 7.0 13.0 0.00 0.00 0.00 28 1017.2
20260508004603 72 294 7.0 14.0 0.00 0.00 0.00 27 1017.1
20260508003029 72 292 5.0 15.0 0.00 0.00 0.00 27 1017.1
20260508001531 73 283 7.0 14.0 0.00 0.00 0.00 26 1017.1
20260507234533 73 299 8.0 20.0 0.00 0.00 0.00 25 1017.0
20260507233031 74 310 7.0 17.0 0.00 0.00 0.00 25 1017.1
20260507231529 74 303 8.0 20.0 0.00 0.00 0.00 25 1017.2
20260507230029 74 295 6.0 14.0 0.00 0.00 0.00 25 1017.3
20260507224607 74 297 7.0 12.0 0.00 0.00 0.00 25 1017.4
20260507223030 74 278 6.0 14.0 0.00 0.00 0.00 27 1017.5
20260507221529 73 301 5.0 11.0 0.00 0.00 0.00 28 1017.7
20260507214530 71 330 4.0 12.0 0.00 0.00 0.00 29 1018.1
20260507213030 70 318 7.0 16.0 0.00 0.00 0.00 30 1018.1
20260507211607 70 328 7.0 16.0 0.00 0.00 0.00 32 1018.1
20260507210107 69 329 6.0 18.0 0.00 0.00 0.00 32 1018.1
20260507203031 70 317 7.0 18.0 0.00 0.00 0.00 33 1018.4
20260507201607 70 306 7.0 18.0 0.00 0.00 0.00 31 1018.6
20260507200106 70 285 7.0 14.0 0.00 0.00 0.00 31 1018.7
20260507194531 70 283 8.0 15.0 0.00 0.00 0.00 31 1018.8
20260507193031 70 292 7.0 16.0 0.00 0.00 0.00 31 1018.9
20260507191604 70 291 8.0 15.0 0.00 0.00 0.00 32 1018.9
20260507190033 69 296 8.0 15.0 0.00 0.00 0.00 32 1019.1
20260507184529 68 300 9.0 14.0 0.00 0.00 0.00 33 1019.2
20260507181532 67 287 7.0 15.0 0.00 0.00 0.00 36 1019.4
20260507180103 66 289 7.0 17.0 0.00 0.00 0.00 37 1019.6
20260507174531 65 291 7.0 16.0 0.00 0.00 0.00 40 1019.8
20260507173028 65 288 9.0 14.0 0.00 0.00 0.00 42 1019.9
20260507170031 64 335 6.0 13.0 0.00 0.00 0.00 48 1019.8
20260507164531 63 337 6.0 11.0 0.00 0.00 0.00 49 1019.9
20260507163031 63 341 5.0 13.0 0.00 0.00 0.00 49 1019.9
20260507160107 61 322 7.0 13.0 0.00 0.00 0.00 51 1019.9
20260507154531 61 330 7.0 14.0 0.00 0.00 0.00 51 1020.0
20260507151606 61 325 6.0 11.0 0.00 0.00 0.00 53 1020.2
20260507150035 60 302 3.0 8.0 0.00 0.00 0.00 57 1020.3
20260507144532 60 304 3.0 8.0 0.00 0.00 0.00 59 1020.3
20260507141529 56 327 2.0 7.0 0.00 0.00 0.00 67 1020.2
20260507140031 53 302 2.0 8.0 0.00 0.00 0.00 74 1020.0
20260507133029 49 308 3.0 6.0 0.00 0.00 0.00 80 1020.0
20260507131531 49 325 1.0 4.0 0.00 0.00 0.00 78 1020.1
20260507130029 50 348 3.0 4.0 0.00 0.00 0.00 77 1020.0
20260507124529 51 338 3.0 7.0 0.00 0.00 0.00 77 1020.0
20260507123030 51 347 3.0 8.0 0.00 0.00 0.00 77 1020.0
20260507121607 51 259 2.0 10.0 0.00 0.00 0.00 76 1019.9
20260507120029 52 143 0.0 4.0 0.00 0.00 0.00 75 1019.9
20260507114539 53 244 1.0 8.0 0.00 0.00 0.00 75 1019.8
20260507113104 53 248 5.0 15.0 0.00 0.00 0.00 75 1019.8
20260507111532 53 252 6.0 12.0 0.00 0.00 0.00 75 1019.8
20260507110032 53 256 6.0 21.0 0.00 0.00 0.00 75 1019.8
20260507104607 53 256 4.0 11.0 0.00 0.00 0.00 75 1019.9
20260507103032 54 266 6.0 15.0 0.00 0.00 0.00 74 1019.9
20260507101532 54 251 7.0 17.0 0.00 0.00 0.00 74 1020.0
20260507093030 54 242 3.0 7.0 0.00 0.00 0.00 73 1020.1
20260507091531 54 232 5.0 12.0 0.00 0.00 0.00 73 1020.1
20260507090144 54 224 4.0 11.0 0.00 0.00 0.00 73 1020.3
20260507084529 54 203 5.0 11.0 0.00 0.00 0.00 74 1020.5
20260507081532 55 239 3.0 10.0 0.00 0.00 0.00 74 1020.8
20260507080030 54 227 4.0 11.0 0.00 0.00 0.00 76 1020.7
20260507074532 53 277 2.0 9.0 0.00 0.00 0.00 78 1020.8
20260507073031 52 262 1.0 5.0 0.00 0.00 0.00 77 1020.7
20260507071533 54 213 0.0 4.0 0.00 0.00 0.00 76 1020.6
20260507070105 54 281 1.0 5.0 0.00 0.00 0.00 76 1020.6
20260507064607 54 329 1.0 8.0 0.00 0.00 0.00 76 1020.7
20260507063031 55 277 2.0 6.0 0.00 0.00 0.00 76 1020.8
20260507061530 54 214 0.0 5.0 0.00 0.00 0.00 76 1020.8
20260507060030 54 245 1.0 5.0 0.00 0.00 0.00 77 1021.0
20260507054532 53 255 1.0 8.0 0.00 0.00 0.00 76 1021.0
20260507053107 54 242 2.0 5.0 0.00 0.00 0.00 73 1021.0
20260507051529 57 173 1.0 4.0 0.00 0.00 0.00 71 1021.1
20260507050035 56 274 2.0 11.0 0.00 0.00 0.00 70 1021.1
20260507044528 57 291 1.0 6.0 0.00 0.00 0.00 68 1021.0
20260507043030 58 315 2.0 11.0 0.00 0.00 0.00 67 1020.9
20260507041530 57 261 2.0 9.0 0.00 0.00 0.00 66 1020.7
20260507040037 57 259 2.0 6.0 0.00 0.00 0.00 65 1020.7
20260507034533 59 171 1.0 8.0 0.00 0.00 0.00 63 1020.7
20260507033030 60 238 2.0 9.0 0.00 0.00 0.00 61 1020.6
20260507031531 61 280 2.0 11.0 0.00 0.00 0.00 58 1020.6
20260507030032 63 225 2.0 7.0 0.00 0.00 0.00 57 1020.7
20260507024528 64 248 3.0 11.0 0.00 0.00 0.00 55 1020.6
20260507023031 65 259 4.0 10.0 0.00 0.00 0.00 53 1020.6
20260507014646 68 235 5.0 13.0 0.00 0.00 0.00 49 1020.2